Current Version              Previous Version:    01  02  03  04  05  06  07  08  09  10  11  12  13  14  15  16  17  18  19  20  21  22  23  24  25  26  27  28  29  30  
   31  32  33  34  35  36  37  38  39  40  41  42  43  44  45  46  47  48  49  50  51  52  53  54  55  56  57  58  59  60  

[Printable]
372
ASUS44 KLUB 251210
RWRTX
WEST TEXAS WEATHER ROUNDUP
NATIONAL WEATHER SERVICE LUBBOCK TX
700 AM CDT SAT OCT 25 2014

NOTE: "FAIR" INDICATES FEW OR NO CLOUDS BELOW 12,000 FEET WITH NO
SIGNIFICANT WEATHER AND/OR OBSTRUCTIONS TO VISIBILITY.

TXZ004-006>008-010-012-014-016-OKZ002-251300-
TEXAS PANHANDLE/OKLAHOMA PANHANDLE

CITY           SKY/WX    TMP DP  RH WIND       PRES   REMARKS
AMARILLO       CLEAR     55  48  77 SW9       30.15S
BORGER         CLEAR     54  43  66 CALM      30.12S
CANADIAN       CLEAR     50  49  95 CALM      30.10R
DALHART        PTCLDY    44  39  82 W6        30.16S
DUMAS            N/A     54  45  72 SW10      30.14S
GUYMON         CLEAR     49  41  74 CALM      30.10S
HEREFORD       CLEAR     50  47  90 S5        30.18S
PAMPA          CLEAR     54  47  77 W7        30.14S
PERRYTON       CLEAR     51  43  73 W5        30.10S
$$

TXZ026-029-035-045-048-251300-
SOUTHERN PANHANDLE/SOUTH PLAINS/ROLLING PLAINS

CITY           SKY/WX    TMP DP  RH WIND       PRES   REMARKS
CHILDRESS      CLEAR     60  52  74 W8        30.10S
SEMINOLE       CLEAR     52  51  95 CALM      30.20R
LUBBOCK        CLEAR     54  49  83 W8        30.17R
PLAINVIEW      CLEAR     50  47  90 CALM      30.16S
SNYDER         CLEAR     57  55  92 SW3       30.17S
$$

TXZ052-054-060>062-072-078-127-140-154-169-251300-
PERMIAN BASIN/CONCHO VALLEY/BIG COUNTRY/EDWARDS PLATEAU

CITY           SKY/WX    TMP DP  RH WIND       PRES   REMARKS
ABILENE        CLEAR     66  57  72 CALM      30.13S
BIG SPRING     CLEAR     59  56  91 SE5       30.19S
BRADY          CLEAR     61  55  82 SW5       30.15S
BROWNWOOD      CLOUDY    55  55 100 CALM      30.15S
JUNCTION       CLEAR     58  54  86 CALM      30.17S
MIDLAND        CLEAR     58  54  86 S5        30.17R
ODESSA         CLEAR     60  56  86 S5        30.18S
SAN ANGELO     CLEAR     57  54  89 SW3       30.16R
SONORA         CLEAR     50  48  93 CALM      30.22S
SWEETWATER     CLEAR     65  58  77 SW13      30.18S
WINK           CLEAR     61  56  83 SE6       30.15R
$$

TXZ055-058-074-075-080-082-251300-
FAR WEST/SOUTHWEST MOUNTAINS/TRANS PECOS

CITY           SKY/WX    TMP DP  RH WIND       PRES   REMARKS
ALPINE         CLEAR     58  51  77 SW6       30.31S
DRYDEN           N/A     62  60  93 N7        30.15S
EL PASO        CLEAR     58  48  69 CALM      30.20R
FORT STOCKTON  CLEAR     62  55  77 S10       30.17S
GUADALUPE PASS CLEAR     60  44  55 SW10      30.29S
MARFA          CLEAR     48  46  93 N7        30.29S
PECOS          CLEAR     53  51  94 NW3       30.15S
PRESIDIO       FAIR      63  54  72 CALM      30.18R
$$

TXZ014-016-019-021>030-083-251300
TEXAS TECH WEST TEXAS MESONET/TEXAS PANHANDLE/NORTHERN SOUTH PLAINS

CITY           SKY/WX    TMP DP  RH WIND       PRES   REMARKS
ABERNATHY 5ENE   N/A     53  49  87 SW7       30.18S
AMARILLO 9NNE    N/A     54  48  79 CALM      30.15R
AMARILLO 7SSE    N/A     47  44  91 SW3       30.17R
AMHERST 1NE      N/A     55  50  84 SW7       30.18S
BOOTLEG 11WNW    N/A     51  47  87 SW12      30.21R
CANADIAN 6E      N/A     53  49  86 NW6       30.09R
CAPROCK CYN SP   N/A     67  49  53 W18       30.12S
CHILDRESS 2NNE   N/A     62  52  69 SW7       30.09S
CLARENDON 2WSW   N/A     57  47  70 SW5       30.13R
CLAUDE 12SW      N/A     63  49  59 SW5       30.16R
DIMMITT 2NE      N/A     56  48  74 SW8       30.18S
FLOYDADA 2NNE    N/A     48  46  94 W8        30.16S
FRIONA 2NE       N/A     49  44  84 SW3       30.19S
GOODLETT 3W      N/A     55  52  88 SW7       30.08S
HART 3N          N/A     49  45  85 W7        30.18S
HEREFORD 2NW     N/A     50  44  78 SW7       30.18R
MCLEAN 1E        N/A     57  47  69 W6        30.11R
MEMPHIS 1NE      N/A     52  50  93 SW2       30.10R
MULESHOE 2SSW    N/A     44  42  93 W3        30.19R
OLTON 6S         N/A     50  46  87 W7        30.18R
PALO DURO SP     N/A     57  48  71 SW3       30.17R
PAMPA 2E         N/A     54  47  76 SW5       30.13S
PLAINVIEW 1S     N/A     49  46  90 W2        30.17R
SILVERTON 7ESE   N/A     50  47  89 SW8       30.16S
TULIA 2ENE       N/A     54  47  79 SW12      30.16S
UMBARGER 3NNE    N/A     50  46  85 SW9       30.17S
$$

TXZ033>036-039>041-045>048-251300
TEXAS TECH WEST TEXAS MESONET/SOUTH PLAINS

CITY           SKY/WX    TMP DP  RH WIND       PRES   REMARKS
AIKEN 3WSW       N/A     47  46  93 W5        30.18S
ANTON 6SSW       N/A     54  51  89 W2        30.18R
BROWNFIELD 2S    N/A     51  48  89 SW1       30.18R
DENVR CTY 7WNW   N/A     52  50  93 SW5       30.19R
GAIL 2ESE        N/A     58  55  92 SW7       30.16R
LAMESA 2SE       N/A     49  48  96 S5        30.19R
LEVELLAND 4S     N/A     52  48  87 SW7       30.18R
LUBBOCK 3WNW     N/A     55  50  82 SW2       30.18R
MORTON 1ENE      N/A     56  51  85 SW6       30.18S
ODONNELL 1N      N/A     50  47  90 SW3       30.18R
PLAINS 3N        N/A     52  49  92 SW8       30.19S
RALLS 1SE        N/A     53  50  89 SW5       30.18R
REESE CENTER     N/A     52  49  91 SW7       30.17S
SEMINOLE 2NNE    N/A     53  50  90 SW2       30.18S
SLATON 2NE       N/A     56  52  85 SW10      30.17R
SNYDER 3E        N/A     58  56  93 S7        30.16S
SUNDOWN 8SW      N/A     48  46  95 SW8       30.18S
TAHOKA 3NNE      N/A     52  50  93 SW6       30.17S
WOLFFORTH 6SSW   N/A     52  51  95 S7        30.18S
$$

TXZ031-032-036>038-042>044-251300-
TEXAS TECH WEST TEXAS MESONET/ROLLING PLAINS

CITY           SKY/WX    TMP DP  RH WIND       PRES   REMARKS
ASPERMONT 3NE    N/A     60  56  87 SW5       30.12S
FLUVANNA 3WNW    N/A     59  55  88 S6        30.16S
GRAHAM 5SSW      N/A     57  52  82 W6        30.17R
GUTHRIE 10WSW    N/A     59  53  79 W5        30.12R
HASKELL 1NW      N/A     60  52  77 SW7       30.11S
JAYTON 1SSE      N/A     58  54  86 W6        30.13S
KNOX CITY 3NW    N/A     58  53  83 SW6       30.11R
LK A HENRY 1NW   N/A     63  58  84 SW7       30.14S
NORTHFIELD 1S    N/A     57  52  83 W2        30.11R
ODELL 4ENE       N/A     58  54  86 S7        30.08S
PADUCAH 10SW     N/A     61  53  74 S1        30.11R
POST 1NE         N/A     60  54  80 SW9       30.15S
RRING SPRGS 3N   N/A     60  53  75 W10       30.14R
SEYMOUR 3NW      N/A     61  54  77 S3        30.09S
SPUR 1W          N/A     55  52  88 W2        30.14R
WEINERT 2NNE     N/A     58  53  83 SW6       30.11S
WHITE RVR 6NE    N/A     63  56  80 SW9       30.15S
$$

TXZ052-054-060>062-072-078-127-140-154-169-251300-
TEXAS TECH WEST TEXAS MESONET/PERMIAN BASIN/
CONCHO VALLEY/BIG COUNTRY/EDWARDS PLATEAU

CITY           SKY/WX    TMP DP  RH WIND       PRES   REMARKS
COYANOSA 2N      N/A     58  57  96 SE6       30.16R
JUNCTION 1SSW    N/A     56  54  95 S3        30.18S
MERTZON 3NNE     N/A     62  58  86 S7        30.17S
SAN ANGELO 7NW   N/A     55  51  88 NW2       30.16R
STRLNG CT 4WSW   N/A     57  56  94 CALM      30.18S
ST LAWRNCE 5SW   N/A     56  55  98 S7        30.18S
SWEETWATR 11SW   N/A     60  56  88 SW5       30.18R
WALL 1E          N/A     58  53  84 SW3       30.16S
$$

TXZ055-058-074-075-080-082-251300-
TEXAS TECH WEST TEXAS MESONET/FAR WEST/SOUTHWEST MOUNTAINS/TRANS PECOS

CITY           SKY/WX    TMP DP  RH WIND       PRES   REMARKS
PRSMN GAP BBNP   N/A     60  57  89 SW1       30.19S
GUADLPE MTN NP   N/A     65  39  38 NW10      30.29R
$$